Tracking 17938 objects as of 22-February-2017
HD Live streaming from Space Station
objects crossing your sky now

EDUSAT

Track EDUSAT now!
10-day predictions
EDUSAT is classified as:


NORAD ID: 37788
Int'l Code: 2011-044A
Perigee: 640.4 km
Apogee: 696.1 km
Inclination: 98.2 °
Period: 98.0 minutes
Semi major axis: 7039 km
RCS: 0.1421 m2 (medium)
Launch date: August 17, 2011
Source: Italy (IT)
Launch site: Orenburg, Russia (OREN)

EduSat is a microsatellite built by the University of Rome.
Your satellite tracking list
Your tracking list is empty





NASA's NSSDC Master Catalog

Two Line Element Set (TLE):
1 37788U 11044A   17052.41317644  .00000146  00000-0  32317-4 0  9999
2 37788  98.2355 170.0671 0039562  94.3339 306.0497 14.70652229295873
Source of the keplerian elements: AFSPC